Showing default

SKYBEE-A02, 64544

Orbit data source: Space-Track

SKYBEE-A02, 64544 is a payload satellite owned by ConstellR (DE) in SSO that was launched on Mon, 23 Jun 2025 UTC via an FALCON 9 launch vehicle from the Air Force Western Test Range (AFWTR). Payload-class satellites include a variety of spacecraft equipped with specific instruments for various scientific and technological missions. These include communications satellites like Starlink; space stations such as the ISS; scientific satellites like the Hubble; Earth observation satellites from companies like Planet Labs, Umbra, and HawkEye 360; GPS; miniature CubeSats for education and research; and military/defense satellites.

Loading next visibility...
Identifier
64544, 2025-135S
Orbit
SSO
Country
Flag of DEDE / GER
Related business
Manufacturer
NanoAvionics
Mission
Operational Commercial Imaging
Bus & Motor
CUBESAT 16U MP16, Unknown motor
Mass
110 kg wet, 110 kg dry
Launch date (UTC)
2025-06-23 (10 months ago)
Launch vehicle
FALCON 9
Launch site
Air Force Western Test Range (AFWTR)
Object type
Payload
Rocket body
Debris
Shape & HBR
Box + 2 Pan, 1.3 m
Radar Cross Section
0.146 m², Large (>1 m²)

Expand to show TLE details & history
Last TLE update: 4 hours ago

TLE from 4 hours ago
0 SKYBEE-A02
1 64544U 25135S   26120.20902845  .00003136  00000-0  14950-3 0  9995
2 64544  97.4674 235.5147 0001320  17.9103 342.2178 15.19842912 47545
Epoch: 2026-04-30T05:01Z
TLE epoch observation values (Epoch: 2026-04-30T05:01:00.058Z)
Latitude
-0.00001°
Longitude
-57.89446°
Altitude
508.538 km
Speed
7.61 km/s
True Right ascension
15h 42m 03s
True Declination
0° 00' 00"
Sunlit
Object was in full shadow at epoch
Visualization orbit readout
Latitude
Unknown
Longitude
Unknown
Altitude
Unknown
Speed
Unknown
Apparent Right ascension
Unknown
Apparent Declination
Unknown
Sunlit
N/A
Visualization observer readout
Local Sidereal Time
16:38:32
Azimuth
Unknown
Elevation
Unknown
Doppler factor
Unknown
Orbital elements
Apogee altitude
504.192 km
Perigee altitude
502.375 km
Semi-major axis
6,881.421 km
Eccentricity
0.00013
Inclination
97.4674°
RAAN
235.5147°
Arg. of periapsis
17.9103°
True anomaly
342.21318°
Mean anomaly
342.2178°
Eccentric anomaly
342.21549°
Mean motion
3.80212 °/min
Orbital period
94.68 mins
BSTAR
0.0001495
Loading maneuver chart data...
Computing Atmospheric mass density...
Loading historical data...
Loading historical data...
Loading historical data...
Loading historical data...
Loading historical data...
Loading historical data...
Loading historical data...

Documentation

Showing up to 5 results
|